This is the latest recevied weather packets stored in our database for station/object EA3AGY-13. If no packets are shown the sender has not sent any weather packets the latest 10 day(s).
| Time | Temp. | Humidity | Pressure | Rain* | Wind** | Luminosity | Snow |
|---|---|---|---|---|---|---|---|
| 1777792212 | 9.44° C | 41% | 1015.3 hPa | 0 mm | - | - | - |
| 1777791006 | 8.89° C | 40% | 1015.2 hPa | 0 mm | - | - | - |
| 1777790403 | 9.44° C | 40% | 1015.2 hPa | 0 mm | - | - | - |
| 1777789802 | 8.89° C | 40% | 1015.3 hPa | 0 mm | - | - | - |
| 1777789200 | 7.78° C | 39% | 1015.3 hPa | 0 mm | - | - | - |
| 1777786789 | 7.22° C | 40% | 1015.3 hPa | 0 mm | - | - | - |
| 1777784983 | 7.78° C | 39% | 1015.1 hPa | 0 mm | - | - | - |
| 1777783175 | 7.22° C | 39% | 1015.2 hPa | 0 mm | - | - | - |
| 1777782573 | 7.78° C | 38% | 1015.3 hPa | 0 mm | - | - | - |
| 1777781368 | 7.78° C | 39% | 1015.3 hPa | 0 mm | - | - | - |
| 1777780766 | 7.22° C | 39% | 1015.4 hPa | 0 mm | - | - | - |
| 1777780163 | 7.78° C | 40% | 1015.6 hPa | 0 mm | - | - | - |
| 1777778959 | 7.22° C | 40% | 1015.7 hPa | 0 mm | - | - | - |
| 1777778356 | 7.22° C | 40% | 1015.7 hPa | 0 mm | - | - | - |
| 1777777152 | 7.22° C | 40% | 1015.8 hPa | 0 mm | - | - | - |
| 1777775947 | 7.78° C | 39% | 1015.8 hPa | 0 mm | - | - | - |
| 1777775345 | 7.78° C | 38% | 1015.8 hPa | 0 mm | - | - | - |
| 1777774140 | 6.67° C | 39% | 1016.1 hPa | 0 mm | - | - | - |
| 1777773539 | 6.67° C | 40% | 1016.1 hPa | 0 mm | - | - | - |
| 1777772935 | 7.22° C | 38% | 1016.1 hPa | 0 mm | - | - | - |
| 1777772332 | 7.78° C | 38% | 1016.3 hPa | 0 mm | - | - | - |
| 1777770526 | 8.33° C | 38% | 1016.6 hPa | 0 mm | - | - | - |
| 1777769320 | 7.78° C | 39% | 1016.7 hPa | 0 mm | - | - | - |
| 1777768718 | 8.33° C | 39% | 1016.8 hPa | 0 mm | - | - | - |
| 1777767513 | 8.33° C | 39% | 1017.1 hPa | 0 mm | - | - | - |
* Rain since midnight (hover to see other rain measurements)
** Current wind speed in m/s (hover to see current wind gust speed)